QPF
0.00 0.00 0.00 0.01 0.01 0.02 0.03 0.04 0.04 0.04 0.03 0.01 0.01 0.01 0.01 0.02 0.03 0.05 0.04 0.02 0.02 0.02 0.01 0.01 0.01 0.02 0.02 0.02 0.03 0.04 0.04 0.04 0.04 0.03 0.02 0.03 0.04 0.04 0.05 0.06 0.07 0.06 0.04
0.00 0.00 0.00 0.01 0.01 0.02 0.03 0.04 0.05 0.05 0.05 0.02 0.01 0.01 0.01 0.01 0.01 0.04 0.06 0.04 0.01 0.01 0.01 0.01 0.01 0.01 0.02 0.02 0.02 0.04 0.05 0.04 0.04 0.03 0.02 0.03 0.05 0.04 0.04 0.04 0.06 0.08 0.07
0.00 0.00 0.00 0.01 0.01 0.02 0.04 0.04 0.05 0.05 0.05 0.03 0.01 0.01 0.01 0.01 0.01 0.02 0.05 0.07 0.04 0.01 0.01 0.01 0.01 0.01 0.02 0.02 0.03 0.04 0.05 0.05 0.04 0.04 0.03 0.03 0.04 0.04 0.05 0.04 0.04 0.06 0.08
0.00 0.01 0.01 0.01 0.01 0.02 0.04 0.04 0.05 0.05 0.04 0.03 0.01 0.01 0.01 0.02 0.02 0.01 0.03 0.06 0.07 0.03 0.01 0.01 0.01 0.01 0.01 0.01 0.02 0.03 0.05 0.06 0.04 0.04 0.04 0.04 0.03 0.04 0.04 0.05 0.05 0.04 0.05
0.00 0.01 0.01 0.01 0.02 0.02 0.04 0.05 0.05 0.05 0.04 0.02 0.01 0.01 0.01 0.01 0.02 0.02 0.03 0.04 0.06 0.05 0.02 0.01 0.01 0.01 0.01 0.01 0.01 0.02 0.03 0.05 0.06 0.04 0.04 0.04 0.03 0.03 0.04 0.05 0.05 0.05 0.05
0.00 0.00 0.01 0.02 0.03 0.03 0.04 0.05 0.05 0.05 0.03 0.02 0.01 0.01 0.01 0.01 0.01 0.01 0.02 0.03 0.05 0.05 0.03 0.01 0.01 0.01 0.02 0.02 0.02 0.02 0.02 0.03 0.04 0.05 0.04 0.04 0.04 0.04 0.04 0.04 0.05 0.06 0.06
0.00 0.00 0.00 0.01 0.02 0.04 0.04 0.04 0.05 0.04 0.03 0.02 0.01 0.01 0.01 0.00 0.00 0.00 0.01 0.02 0.03 0.04 0.03 0.02 0.02 0.01 0.01 0.02 0.01 0.02 0.03 0.02 0.03 0.04 0.05 0.04 0.04 0.04 0.04 0.05 0.05 0.05 0.07
0.00 0.00 0.00 0.00 0.01 0.03 0.04 0.04 0.05 0.04 0.03 0.01 0.01 0.01 0.01 0.00 0.00 0.00 0.00 0.01 0.02 0.02 0.03 0.03 0.02 0.01 0.01 0.01 0.01 0.02 0.03 0.02 0.02 0.03 0.04 0.04 0.04 0.04 0.04 0.05 0.05 0.06 0.06
0.00 0.00 0.00 0.00 0.01 0.01 0.02 0.04 0.04 0.03 0.02 0.01 0.01 0.00 0.00 0.00 0.00 0.00 0.01 0.01 0.02 0.02 0.02 0.02 0.02 0.01 0.01 0.01 0.01 0.01 0.02 0.02 0.02 0.02 0.03 0.04 0.03 0.03 0.04 0.04 0.05 0.05 0.06
0.00 0.01 0.01 0.01 0.01 0.01 0.01 0.02 0.03 0.02 0.01 0.01 0.01 0.00 0.00 0.00 0.00 0.01 0.01 0.01 0.01 0.02 0.02 0.02 0.02 0.02 0.01 0.01 0.00 0.01 0.01 0.02 0.02 0.02 0.03 0.03 0.02 0.02 0.02 0.03 0.04 0.04 0.05
0.00 0.01 0.01 0.02 0.02 0.02 0.01 0.01 0.02 0.02 0.01 0.01 0.01 0.01 0.00 0.00 0.01 0.01 0.01 0.01 0.01 0.02 0.02 0.02 0.01 0.01 0.01 0.01 0.00 0.00 0.01 0.01 0.01 0.01 0.02 0.02 0.02 0.02 0.02 0.02 0.03 0.04 0.05
0.01 0.01 0.01 0.02 0.02 0.02 0.01 0.01 0.01 0.02 0.01 0.01 0.01 0.01 0.01 0.00 0.00 0.01 0.00 0.01 0.01 0.01 0.02 0.02 0.01 0.01 0.01 0.00 0.00 0.00 0.00 0.01 0.01 0.01 0.01 0.01 0.02 0.02 0.02 0.02 0.02 0.02 0.03
0.01 0.01 0.02 0.02 0.02 0.02 0.02 0.02 0.02 0.02 0.01 0.01 0.00 0.00 0.00 0.00 0.00 0.00 0.00 0.00 0.01 0.01 0.01 0.02 0.01 0.01 0.00 0.00 0.00 0.00 0.00 0.00 0.00 0.01 0.01 0.01 0.02 0.02 0.02 0.02 0.02 0.02 0.02
0.01 0.01 0.01 0.02 0.02 0.02 0.02 0.02 0.02 0.01 0.01 0.00 0.00 0.00 0.00 0.00 0.00 0.00 0.00 0.00 0.01 0.01 0.01 0.01 0.01 0.01 0.00 0.00 0.00 0.00 0.00 0.00 0.00 0.01 0.01 0.01 0.01 0.02 0.02 0.03 0.03 0.03 0.03
0.01 0.01 0.01 0.01 0.01 0.02 0.02 0.02 0.01 0.01 0.00 0.00 0.00 0.00 0.01 0.01 0.01 0.00 0.00 0.00 0.00 0.00 0.01 0.01 0.01 0.01 0.00 0.00 0.00 0.01 0.01 0.01 0.01 0.01 0.01 0.01 0.01 0.02 0.03 0.03 0.04 0.04 0.04
0.00 0.00 0.01 0.01 0.01 0.01 0.02 0.02 0.01 0.01 0.00 0.00 0.00 0.00 0.00 0.00 0.01 0.01 0.00 0.00 0.00 0.00 0.00 0.01 0.01 0.01 0.00 0.00 0.01 0.02 0.02 0.02 0.02 0.01 0.01 0.01 0.01 0.01 0.02 0.02 0.03 0.03 0.04
0.00 0.00 0.00 0.00 0.00 0.00 0.01 0.02 0.02 0.01 0.01 0.01 0.00 0.00 0.00 0.00 0.00 0.00 0.01 0.00 0.00 0.00 0.00 0.00 0.01 0.01 0.00 0.01 0.01 0.02 0.03 0.02 0.01 0.01 0.01 0.01 0.01 0.01 0.01 0.01 0.01 0.02 0.02
0.00 0.00 0.00 0.00 0.00 0.00 0.01 0.01 0.02 0.02 0.01 0.01 0.01 0.01 0.00 0.00 0.00 0.00 0.00 0.00 0.00 0.00 0.00 0.00 0.00 0.01 0.01 0.01 0.01 0.02 0.02 0.01 0.00 0.00 0.00 0.00 0.00 0.01 0.01 0.02 0.02 0.01 0.01
0.00 0.00 0.00 0.00 0.01 0.01 0.01 0.01 0.01 0.02 0.02 0.02 0.02 0.01 0.00 0.00 0.00 0.00 0.00 0.00 0.00 0.01 0.01 0.01 0.01 0.00 0.01 0.01 0.01 0.02 0.01 0.01 0.00 0.00 0.00 0.00 0.00 0.01 0.02 0.03 0.03 0.02 0.01
0.00 0.00 0.00 0.00 0.00 0.01 0.01 0.01 0.01 0.01 0.01 0.01 0.02 0.02 0.01 0.01 0.00 0.00 0.00 0.00 0.00 0.01 0.01 0.01 0.01 0.01 0.00 0.01 0.01 0.02 0.02 0.02 0.01 0.00 0.00 0.00 0.01 0.01 0.02 0.03 0.04 0.03 0.01
0.00 0.00 0.00 0.01 0.01 0.01 0.01 0.01 0.01 0.01 0.01 0.01 0.02 0.03 0.02 0.01 0.01 0.00 0.00 0.00 0.00 0.01 0.01 0.01 0.01 0.01 0.01 0.01 0.01 0.02 0.03 0.03 0.02 0.01 0.00 0.00 0.01 0.02 0.03 0.03 0.03 0.03 0.02
0.00 0.01 0.01 0.01 0.01 0.01 0.01 0.01 0.00 0.00 0.01 0.02 0.02 0.03 0.03 0.02 0.01 0.01 0.01 0.00 0.01 0.01 0.01 0.01 0.01 0.01 0.01 0.01 0.01 0.02 0.02 0.03 0.03 0.02 0.01 0.01 0.02 0.02 0.02 0.02 0.02 0.02 0.02
0.01 0.01 0.01 0.01 0.01 0.01 0.01 0.01 0.01 0.01 0.01 0.02 0.02 0.02 0.03 0.02 0.02 0.01 0.01 0.01 0.01 0.01 0.01 0.01 0.02 0.02 0.02 0.02 0.01 0.01 0.02 0.02 0.02 0.01 0.01 0.01 0.02 0.02 0.01 0.01 0.01 0.02 0.02
0.01 0.01 0.01 0.00 0.00 0.01 0.01 0.01 0.01 0.01 0.01 0.02 0.02 0.02 0.02 0.03 0.02 0.01 0.01 0.01 0.01 0.01 0.01 0.02 0.02 0.02 0.03 0.04 0.04 0.04 0.03 0.03 0.02 0.01 0.01 0.01 0.01 0.01 0.01 0.01 0.01 0.02 0.02
0.01 0.00 0.00 0.00 0.00 0.00 0.00 0.01 0.01 0.01 0.01 0.01 0.01 0.01 0.02 0.03 0.02 0.02 0.01 0.01 0.01 0.02 0.03 0.03 0.04 0.04 0.05 0.06 0.07 0.06 0.05 0.04 0.04 0.03 0.02 0.01 0.01 0.01 0.01 0.01 0.01 0.02 0.02
0.00 0.00 0.00 0.00 0.00 0.00 0.00 0.00 0.01 0.01 0.02 0.01 0.01 0.01 0.02 0.03 0.03 0.03 0.02 0.02 0.02 0.02 0.02 0.03 0.03 0.04 0.05 0.06 0.06 0.05 0.04 0.04 0.03 0.03 0.02 0.02 0.01 0.01 0.01 0.02 0.02 0.02 0.02
MSLP
1025.85 1026.37 1026.80 1027.11 1027.32 1027.43 1027.44 1027.37 1027.25 1027.11 1026.96 1026.83 1026.72 1026.64 1026.57 1026.49 1026.38 1026.21 1025.97 1025.67 1025.31 1024.91 1024.51 1024.10 1023.70 1023.29 1022.82 1022.27 1021.58 1020.72 1019.68 1018.46 1017.10 1015.68 1014.26 1012.90 1011.66 1010.57 1009.63 1008.82 1008.10 1007.44 1006.82
1025.46 1026.07 1026.57 1026.94 1027.19 1027.32 1027.37 1027.35 1027.29 1027.23 1027.17 1027.14 1027.12 1027.09 1027.05 1026.96 1026.81 1026.58 1026.28 1025.93 1025.53 1025.13 1024.74 1024.38 1024.03 1023.66 1023.25 1022.74 1022.08 1021.25 1020.23 1019.05 1017.74 1016.37 1015.00 1013.70 1012.50 1011.42 1010.48 1009.64 1008.87 1008.14 1007.43
1024.98 1025.68 1026.26 1026.69 1026.98 1027.15 1027.24 1027.27 1027.29 1027.31 1027.35 1027.41 1027.46 1027.49 1027.48 1027.38 1027.19 1026.91 1026.56 1026.16 1025.73 1025.32 1024.94 1024.60 1024.28 1023.96 1023.59 1023.12 1022.51 1021.73 1020.79 1019.69 1018.48 1017.21 1015.94 1014.73 1013.60 1012.57 1011.64 1010.77 1009.96 1009.16 1008.36
1024.48 1025.26 1025.91 1026.40 1026.74 1026.95 1027.08 1027.17 1027.25 1027.35 1027.47 1027.60 1027.72 1027.79 1027.79 1027.68 1027.47 1027.15 1026.76 1026.32 1025.87 1025.45 1025.07 1024.74 1024.45 1024.15 1023.81 1023.38 1022.83 1022.14 1021.29 1020.31 1019.24 1018.12 1016.99 1015.89 1014.85 1013.88 1012.96 1012.08 1011.23 1010.37 1009.50
1024.02 1024.87 1025.58 1026.12 1026.51 1026.76 1026.93 1027.06 1027.18 1027.34 1027.51 1027.70 1027.86 1027.96 1027.96 1027.85 1027.61 1027.27 1026.85 1026.39 1025.93 1025.50 1025.12 1024.79 1024.50 1024.22 1023.91 1023.52 1023.04 1022.43 1021.71 1020.88 1019.96 1019.00 1018.03 1017.06 1016.11 1015.19 1014.29 1013.40 1012.51 1011.62 1010.71
1023.64 1024.56 1025.32 1025.91 1026.33 1026.61 1026.80 1026.96 1027.11 1027.29 1027.49 1027.70 1027.87 1027.98 1027.98 1027.86 1027.62 1027.27 1026.84 1026.37 1025.91 1025.48 1025.10 1024.77 1024.48 1024.20 1023.91 1023.56 1023.13 1022.62 1022.02 1021.33 1020.58 1019.78 1018.95 1018.10 1017.23 1016.36 1015.47 1014.58 1013.67 1012.76 1011.86
1023.37 1024.33 1025.14 1025.76 1026.21 1026.51 1026.72 1026.88 1027.04 1027.22 1027.42 1027.62 1027.79 1027.88 1027.88 1027.75 1027.51 1027.16 1026.75 1026.30 1025.85 1025.43 1025.05 1024.72 1024.42 1024.14 1023.85 1023.52 1023.15 1022.71 1022.22 1021.66 1021.05 1020.39 1019.68 1018.92 1018.12 1017.28 1016.41 1015.51 1014.60 1013.71 1012.85
1023.17 1024.18 1025.03 1025.68 1026.16 1026.47 1026.68 1026.84 1026.99 1027.15 1027.33 1027.51 1027.65 1027.72 1027.70 1027.57 1027.33 1027.01 1026.62 1026.20 1025.78 1025.38 1025.01 1024.68 1024.37 1024.07 1023.77 1023.45 1023.10 1022.73 1022.31 1021.86 1021.36 1020.81 1020.19 1019.50 1018.75 1017.93 1017.06 1016.16 1015.28 1014.43 1013.64
1022.99 1024.05 1024.95 1025.64 1026.13 1026.47 1026.69 1026.84 1026.97 1027.11 1027.26 1027.39 1027.50 1027.54 1027.51 1027.37 1027.15 1026.85 1026.50 1026.13 1025.75 1025.37 1025.02 1024.68 1024.36 1024.03 1023.71 1023.38 1023.04 1022.69 1022.33 1021.94 1021.52 1021.04 1020.49 1019.85 1019.13 1018.32 1017.47 1016.59 1015.74 1014.96 1014.28
1022.78 1023.90 1024.84 1025.58 1026.11 1026.47 1026.71 1026.87 1026.99 1027.11 1027.22 1027.32 1027.39 1027.40 1027.35 1027.21 1027.00 1026.74 1026.43 1026.10 1025.76 1025.42 1025.08 1024.73 1024.39 1024.03 1023.67 1023.31 1022.96 1022.61 1022.27 1021.92 1021.55 1021.12 1020.62 1020.02 1019.33 1018.55 1017.72 1016.88 1016.08 1015.38 1014.81
1022.48 1023.67 1024.67 1025.46 1026.05 1026.45 1026.72 1026.90 1027.03 1027.14 1027.24 1027.31 1027.34 1027.32 1027.25 1027.11 1026.91 1026.67 1026.40 1026.11 1025.81 1025.50 1025.17 1024.81 1024.44 1024.05 1023.65 1023.25 1022.86 1022.50 1022.16 1021.83 1021.48 1021.10 1020.64 1020.09 1019.44 1018.71 1017.92 1017.14 1016.42 1015.81 1015.35
1022.09 1023.35 1024.42 1025.28 1025.92 1026.38 1026.70 1026.92 1027.08 1027.20 1027.28 1027.33 1027.34 1027.30 1027.20 1027.06 1026.87 1026.65 1026.40 1026.15 1025.87 1025.58 1025.25 1024.89 1024.49 1024.06 1023.61 1023.16 1022.74 1022.35 1022.00 1021.68 1021.36 1021.01 1020.61 1020.12 1019.54 1018.88 1018.17 1017.47 1016.83 1016.31 1015.95
1021.65 1022.98 1024.11 1025.03 1025.73 1026.25 1026.63 1026.91 1027.10 1027.24 1027.34 1027.38 1027.37 1027.31 1027.20 1027.03 1026.84 1026.63 1026.40 1026.16 1025.90 1025.62 1025.29 1024.92 1024.49 1024.02 1023.53 1023.04 1022.57 1022.16 1021.80 1021.48 1021.19 1020.89 1020.55 1020.14 1019.66 1019.09 1018.49 1017.89 1017.34 1016.91 1016.63
1021.26 1022.63 1023.80 1024.75 1025.50 1026.08 1026.51 1026.84 1027.08 1027.26 1027.37 1027.42 1027.40 1027.32 1027.18 1027.00 1026.80 1026.58 1026.36 1026.12 1025.88 1025.60 1025.27 1024.88 1024.42 1023.92 1023.39 1022.85 1022.36 1021.91 1021.54 1021.24 1020.98 1020.74 1020.48 1020.17 1019.79 1019.35 1018.86 1018.37 1017.92 1017.57 1017.34
1021.02 1022.39 1023.55 1024.51 1025.28 1025.89 1026.36 1026.73 1027.02 1027.22 1027.35 1027.41 1027.38 1027.29 1027.13 1026.94 1026.72 1026.49 1026.26 1026.03 1025.78 1025.50 1025.16 1024.76 1024.28 1023.75 1023.19 1022.62 1022.09 1021.63 1021.25 1020.96 1020.73 1020.55 1020.37 1020.16 1019.90 1019.59 1019.23 1018.85 1018.49 1018.20 1018.01
1021.03 1022.34 1023.45 1024.37 1025.11 1025.71 1026.20 1026.59 1026.90 1027.13 1027.28 1027.34 1027.31 1027.21 1027.04 1026.83 1026.60 1026.36 1026.13 1025.89 1025.64 1025.35 1025.01 1024.59 1024.10 1023.55 1022.96 1022.37 1021.81 1021.32 1020.93 1020.64 1020.44 1020.31 1020.20 1020.08 1019.94 1019.74 1019.49 1019.22 1018.95 1018.72 1018.55
1021.34 1022.53 1023.53 1024.36 1025.04 1025.60 1026.06 1026.45 1026.76 1027.00 1027.16 1027.22 1027.19 1027.08 1026.91 1026.69 1026.44 1026.20 1025.96 1025.72 1025.47 1025.18 1024.84 1024.41 1023.91 1023.35 1022.74 1022.12 1021.54 1021.03 1020.62 1020.32 1020.13 1020.02 1019.96 1019.91 1019.85 1019.75 1019.60 1019.42 1019.22 1019.04 1018.89
1021.96 1022.98 1023.82 1024.51 1025.08 1025.56 1025.97 1026.33 1026.62 1026.85 1027.00 1027.07 1027.04 1026.92 1026.75 1026.52 1026.28 1026.04 1025.80 1025.56 1025.31 1025.02 1024.68 1024.26 1023.75 1023.18 1022.55 1021.92 1021.31 1020.77 1020.34 1020.02 1019.81 1019.70 1019.65 1019.64 1019.62 1019.59 1019.51 1019.40 1019.27 1019.13 1019.02
1022.81 1023.61 1024.26 1024.79 1025.23 1025.61 1025.95 1026.25 1026.51 1026.72 1026.86 1026.91 1026.87 1026.76 1026.58 1026.36 1026.12 1025.88 1025.65 1025.42 1025.18 1024.90 1024.56 1024.13 1023.63 1023.05 1022.42 1021.77 1021.15 1020.58 1020.12 1019.76 1019.52 1019.38 1019.32 1019.30 1019.30 1019.29 1019.26 1019.20 1019.12 1019.03 1018.95
1023.77 1024.36 1024.81 1025.17 1025.47 1025.74 1026.00 1026.24 1026.46 1026.63 1026.74 1026.77 1026.72 1026.60 1026.43 1026.21 1025.98 1025.75 1025.53 1025.30 1025.06 1024.79 1024.45 1024.04 1023.54 1022.96 1022.33 1021.68 1021.04 1020.46 1019.96 1019.57 1019.29 1019.10 1019.00 1018.96 1018.94 1018.94 1018.92 1018.89 1018.85 1018.81 1018.79
1024.74 1025.10 1025.37 1025.59 1025.77 1025.94 1026.12 1026.30 1026.46 1026.59 1026.66 1026.67 1026.60 1026.47 1026.29 1026.07 1025.85 1025.62 1025.40 1025.18 1024.94 1024.67 1024.34 1023.93 1023.44 1022.88 1022.26 1021.62 1020.99 1020.40 1019.88 1019.46 1019.14 1018.91 1018.77 1018.68 1018.63 1018.61 1018.59 1018.58 1018.57 1018.58 1018.61
1025.59 1025.79 1025.91 1026.01 1026.09 1026.20 1026.31 1026.43 1026.53 1026.61 1026.63 1026.60 1026.50 1026.35 1026.15 1025.93 1025.70 1025.47 1025.25 1025.03 1024.79 1024.51 1024.18 1023.77 1023.30 1022.76 1022.16 1021.55 1020.94 1020.37 1019.86 1019.44 1019.09 1018.84 1018.65 1018.53 1018.45 1018.40 1018.37 1018.37 1018.39 1018.44 1018.53
1026.30 1026.36 1026.39 1026.40 1026.43 1026.48 1026.54 1026.61 1026.66 1026.67 1026.64 1026.56 1026.41 1026.23 1026.01 1025.77 1025.52 1025.29 1025.05 1024.81 1024.56 1024.27 1023.94 1023.54 1023.08 1022.57 1022.02 1021.45 1020.89 1020.36 1019.89 1019.49 1019.16 1018.89 1018.69 1018.55 1018.44 1018.37 1018.33 1018.34 1018.38 1018.47 1018.61
1026.86 1026.83 1026.80 1026.78 1026.78 1026.79 1026.81 1026.82 1026.81 1026.76 1026.66 1026.52 1026.32 1026.09 1025.84 1025.57 1025.31 1025.05 1024.80 1024.54 1024.27 1023.96 1023.62 1023.23 1022.79 1022.31 1021.80 1021.30 1020.81 1020.35 1019.95 1019.60 1019.31 1019.08 1018.89 1018.74 1018.63 1018.55 1018.51 1018.52 1018.58 1018.69 1018.88
1027.31 1027.24 1027.19 1027.15 1027.12 1027.10 1027.08 1027.04 1026.96 1026.84 1026.67 1026.45 1026.20 1025.92 1025.63 1025.34 1025.05 1024.77 1024.50 1024.22 1023.92 1023.60 1023.25 1022.86 1022.44 1022.00 1021.55 1021.12 1020.71 1020.35 1020.03 1019.76 1019.55 1019.37 1019.22 1019.10 1019.00 1018.93 1018.89 1018.91 1018.98 1019.11 1019.32
1027.74 1027.65 1027.57 1027.52 1027.47 1027.41 1027.33 1027.22 1027.07 1026.87 1026.62 1026.34 1026.03 1025.71 1025.39 1025.08 1024.78 1024.48 1024.20 1023.90 1023.59 1023.25 1022.88 1022.50 1022.09 1021.69 1021.30 1020.93 1020.62 1020.35 1020.13 1019.97 1019.84 1019.74 1019.65 1019.57 1019.51 1019.46 1019.44 1019.46 1019.54 1019.68 1019.90
Thickness
5532 5528 5524 5519 5516 5512 5509 5507 5505 5503 5502 5500 5499 5498 5496 5495 5495 5495 5495 5495 5495 5495 5496 5496 5497 5498 5499 5500 5501 5503 5504 5506 5509 5512 5516 5520 5523 5526 5528 5530 5533 5537 5540
5522 5518 5514 5509 5506 5502 5499 5497 5495 5492 5491 5489 5487 5486 5484 5483 5482 5481 5481 5481 5481 5481 5481 5481 5482 5483 5484 5484 5485 5487 5488 5489 5490 5492 5496 5500 5506 5509 5512 5514 5516 5520 5523
5516 5510 5505 5499 5495 5492 5489 5487 5484 5481 5479 5477 5476 5474 5471 5469 5468 5467 5467 5466 5466 5465 5465 5466 5467 5467 5468 5468 5468 5469 5471 5472 5473 5473 5475 5478 5484 5488 5495 5498 5500 5502 5505
5508 5502 5496 5490 5486 5482 5479 5476 5473 5470 5468 5466 5464 5461 5459 5456 5454 5453 5451 5451 5450 5450 5450 5450 5451 5451 5452 5452 5452 5453 5454 5455 5456 5457 5457 5458 5461 5465 5474 5481 5483 5485 5488
5498 5493 5488 5482 5477 5473 5468 5465 5462 5459 5457 5455 5452 5448 5446 5443 5441 5439 5437 5436 5436 5435 5434 5434 5435 5435 5435 5435 5436 5436 5437 5438 5439 5440 5440 5442 5443 5446 5451 5461 5467 5469 5471
5488 5483 5478 5473 5467 5462 5458 5454 5451 5448 5446 5443 5440 5437 5433 5430 5427 5425 5423 5422 5421 5420 5419 5419 5418 5418 5418 5418 5419 5420 5420 5421 5422 5423 5424 5426 5428 5430 5433 5440 5447 5452 5456
5477 5472 5467 5463 5458 5452 5448 5444 5440 5436 5434 5430 5427 5424 5421 5417 5414 5412 5410 5408 5406 5406 5405 5403 5403 5402 5402 5402 5403 5404 5404 5405 5405 5406 5408 5410 5412 5414 5418 5422 5427 5434 5440
5466 5462 5458 5453 5448 5443 5438 5433 5429 5425 5422 5418 5415 5412 5408 5405 5402 5399 5396 5394 5392 5391 5390 5389 5388 5387 5386 5387 5387 5388 5388 5389 5390 5392 5393 5395 5397 5399 5402 5405 5409 5415 5422
5454 5450 5446 5441 5437 5432 5428 5423 5418 5414 5410 5407 5403 5399 5396 5392 5389 5386 5383 5380 5378 5377 5376 5374 5373 5373 5372 5372 5372 5372 5373 5374 5375 5377 5378 5380 5383 5385 5387 5391 5394 5397 5405
5442 5438 5433 5429 5425 5420 5416 5411 5407 5402 5398 5394 5390 5388 5383 5380 5376 5373 5370 5367 5365 5363 5362 5360 5359 5358 5358 5357 5357 5357 5358 5359 5361 5362 5364 5366 5369 5371 5374 5377 5380 5383 5388
5429 5425 5420 5416 5412 5408 5403 5399 5395 5390 5386 5382 5378 5375 5371 5367 5364 5361 5358 5354 5352 5350 5348 5347 5346 5345 5344 5343 5343 5343 5344 5345 5347 5348 5350 5353 5355 5357 5360 5363 5366 5369 5373
5416 5412 5408 5403 5399 5395 5391 5387 5383 5379 5374 5370 5366 5362 5359 5356 5352 5349 5346 5343 5339 5337 5335 5334 5333 5332 5331 5330 5329 5329 5331 5332 5334 5335 5337 5339 5341 5344 5347 5350 5353 5356 5360
5404 5398 5394 5390 5386 5382 5379 5375 5371 5367 5362 5358 5354 5350 5347 5343 5340 5337 5334 5331 5328 5325 5323 5321 5320 5319 5318 5318 5317 5318 5319 5320 5321 5323 5324 5326 5328 5331 5334 5337 5340 5344 5347
5392 5386 5381 5377 5373 5370 5367 5363 5359 5355 5351 5346 5342 5339 5335 5332 5329 5326 5323 5320 5317 5314 5311 5310 5308 5308 5307 5306 5306 5307 5308 5309 5310 5311 5312 5314 5316 5319 5322 5325 5328 5332 5334
5381 5376 5370 5365 5362 5358 5355 5352 5348 5344 5340 5335 5331 5328 5325 5321 5318 5314 5311 5308 5305 5303 5300 5298 5297 5296 5296 5296 5297 5297 5298 5299 5299 5300 5301 5303 5306 5308 5311 5314 5317 5319 5322
5371 5366 5361 5356 5351 5347 5344 5341 5337 5333 5329 5324 5320 5317 5314 5310 5307 5303 5300 5297 5294 5292 5290 5287 5286 5285 5286 5287 5289 5289 5289 5289 5290 5290 5291 5293 5294 5297 5300 5303 5306 5308 5310
5359 5354 5349 5344 5341 5337 5334 5329 5326 5322 5318 5314 5310 5307 5303 5299 5296 5292 5289 5286 5283 5280 5279 5277 5276 5276 5276 5278 5280 5280 5280 5279 5279 5280 5281 5283 5284 5286 5288 5291 5294 5296 5299
5347 5342 5337 5333 5330 5326 5322 5319 5315 5311 5307 5303 5299 5296 5292 5288 5285 5281 5278 5274 5272 5269 5268 5268 5267 5267 5267 5269 5270 5271 5271 5270 5270 5271 5272 5273 5274 5276 5278 5281 5284 5286 5288
5335 5330 5325 5321 5317 5315 5312 5308 5304 5299 5296 5292 5289 5285 5281 5277 5274 5270 5267 5264 5261 5259 5258 5258 5258 5257 5258 5259 5261 5262 5261 5261 5261 5262 5263 5264 5265 5268 5270 5272 5274 5277 5279
5322 5318 5313 5310 5306 5303 5300 5296 5292 5289 5286 5283 5279 5275 5271 5268 5264 5261 5257 5254 5251 5250 5249 5249 5248 5248 5249 5250 5252 5253 5252 5253 5254 5254 5255 5256 5258 5260 5261 5262 5264 5266 5269
5311 5307 5302 5298 5295 5292 5288 5285 5282 5278 5276 5272 5268 5265 5261 5258 5255 5252 5248 5245 5242 5240 5239 5239 5240 5239 5240 5241 5243 5244 5243 5244 5245 5246 5247 5248 5250 5252 5253 5254 5254 5257 5259
5300 5296 5291 5287 5283 5280 5277 5274 5271 5268 5265 5261 5257 5254 5251 5248 5246 5242 5239 5236 5233 5231 5230 5230 5231 5231 5231 5233 5234 5235 5236 5237 5237 5239 5239 5240 5242 5244 5245 5245 5246 5248 5249
5289 5285 5280 5276 5272 5269 5266 5263 5261 5258 5254 5251 5247 5245 5242 5239 5237 5233 5231 5228 5225 5223 5224 5223 5224 5224 5224 5225 5226 5227 5228 5229 5230 5231 5232 5234 5235 5235 5235 5236 5237 5237 5237
5277 5273 5269 5265 5262 5259 5256 5253 5251 5249 5245 5242 5239 5237 5234 5231 5228 5226 5225 5222 5219 5217 5217 5217 5217 5217 5217 5218 5219 5219 5220 5221 5222 5223 5224 5225 5226 5225 5226 5226 5225 5226 5228
5266 5262 5259 5256 5253 5250 5247 5245 5243 5240 5237 5235 5232 5229 5227 5224 5221 5219 5217 5216 5214 5212 5213 5212 5211 5210 5211 5212 5214 5214 5214 5214 5214 5215 5215 5215 5215 5215 5215 5216 5216 5217 5219
5255 5252 5248 5245 5243 5240 5238 5236 5234 5232 5229 5228 5225 5222 5219 5217 5215 5213 5211 5210 5209 5209 5209 5208 5207 5206 5206 5207 5208 5208 5208 5207 5208 5206 5205 5205 5205 5206 5206 5207 5208 5209 5209